This is the latest recevied weather packets stored in our database for station/object N7CEE-2. If no packets are shown the sender has not sent any weather packets the latest 10 day(s).
| Time | Temp. | Humidity | Pressure | Rain* | Wind** | Luminosity | Snow |
|---|---|---|---|---|---|---|---|
| 1777760598 | 32.22° C | 20% | 1013.2 hPa | 0 mm | - | 617 W/m² | - |
| 1777760294 | 32.22° C | 20% | 1013.2 hPa | 0 mm | - | 570 W/m² | - |
| 1777759990 | 32.78° C | 20% | 1013.4 hPa | 0 mm | - | 746 W/m² | - |
| 1777759688 | 32.78° C | 20% | 1013.3 hPa | 0 mm | - | 771 W/m² | - |
| 1777759383 | 32.22° C | 20% | 1013.5 hPa | 0 mm | - | 781 W/m² | - |
| 1777759080 | 32.78° C | 20% | 1013.7 hPa | 0 mm | - | 788 W/m² | - |
| 1777758777 | 32.22° C | 20% | 1013.7 hPa | 0 mm | - | 783 W/m² | - |
| 1777758474 | 32.22° C | 20% | 1013.6 hPa | 0 mm | - | 776 W/m² | - |
| 1777758171 | 32.22° C | 20% | 1013.7 hPa | 0 mm | - | 819 W/m² | - |
| 1777757868 | 32.78° C | 20% | 1013.7 hPa | 0 mm | - | 821 W/m² | - |
| 1777757566 | 32.78° C | 20% | 1013.9 hPa | 0 mm | - | 835 W/m² | - |
| 1777757264 | 32.78° C | 20% | 1013.9 hPa | 0 mm | - | 846 W/m² | - |
| 1777756962 | 32.78° C | 20% | 1014.4 hPa | 0 mm | - | 856 W/m² | - |
| 1777756657 | 31.67° C | 21% | 1014.1 hPa | 0 mm | - | 861 W/m² | - |
| 1777756355 | 31.67° C | 21% | 1014.5 hPa | 0 mm | - | 871 W/m² | - |
| 1777756052 | 31.67° C | 21% | 1014.6 hPa | 0 mm | - | 868 W/m² | - |
| 1777755749 | 32.22° C | 21% | 1014.5 hPa | 0 mm | - | 890 W/m² | - |
| 1777755446 | 32.22° C | 21% | 1014.4 hPa | 0 mm | - | 903 W/m² | - |
| 1777755142 | 32.22° C | 19% | 1014.8 hPa | 0 mm | - | 912 W/m² | - |
| 1777754839 | 31.67° C | 18% | 1014.7 hPa | 0 mm | - | 914 W/m² | - |
| 1777754532 | 31.67° C | 19% | 1014.8 hPa | 0 mm | - | 920 W/m² | - |
| 1777754229 | 31.67° C | 18% | 1015.1 hPa | 0 mm | - | 934 W/m² | - |
| 1777753926 | 32.78° C | 17% | 1015 hPa | 0 mm | - | 952 W/m² | - |
| 1777753620 | 31.67° C | 17% | 1015.1 hPa | 0 mm | - | 962 W/m² | - |
| 1777753319 | 31.67° C | 18% | 1015 hPa | 0 mm | - | 958 W/m² | - |
* Rain latest hour (hover to see other rain measurements)
** Current wind speed in m/s (hover to see current wind gust speed)